Location: Paris
(48.6709°N, 2.3750°E)
Time: 07:15:51
(UTC+02:00)

CUBESAT XI-V - Pass Details

Date: 30 June 2022
Orbit: 668 x 690 km, 98.1° (Epoch: 18 August)

Event Time Altitude Azimuth Distance (km) Brightness Sun altitude
Exits shadow 02:43:01 11° 133° (SE) 2,031 ? -17.3°
Maximum altitude 02:47:02 37° 67° (ENE) 1,047 ? -17.2°
Drops below altitude 10° 02:51:16 10° 1° (N) 2,111 ? -17.0°
Sets 02:53:37 0° 353° (N) 3,028 ? -16.9°
